Location: Unspecified
(34.2650°N, 0.0000°E)
Time: 02:05:46
(UTC+00:00)

ACS3 Solar Sail - Visible Passes

Search period start: 04 April 2026 00:00
Search period end: 14 April 2026 00:00
Orbit: 874 x 980 km, 97.2° (Epoch: 29 March)

Date Brightness Start Highest point End Pass type
(mag) Time Alt. Az. Time Alt. Az. Time Alt. Az.
4 Apr 4.0 01:45:18 10° N 01:46:33 17° N 01:46:33 17° N visible
5 Apr 3.9 01:55:36 10° N 01:56:57 17° N 01:56:57 17° N visible
6 Apr 3.9 02:05:53 10° N 02:07:16 17° NNW 02:07:16 17° NNW visible
7 Apr 4.4 00:33:34 10° NNE 00:33:58 12° NNE 00:33:58 12° NNE visible
7 Apr 3.9 02:16:09 10° NNW 02:17:33 16° NNW 02:17:33 16° NNW visible
8 Apr 4.3 00:43:21 10° NNE 00:44:12 14° NNE 00:44:12 14° NNE visible
8 Apr 3.9 02:26:28 10° NNW 02:27:47 15° NNW 02:27:47 15° NNW visible
9 Apr 4.1 00:53:08 10° NNE 00:54:22 17° NNE 00:54:22 17° NNE visible
9 Apr 3.9 02:36:49 10° NNW 02:37:57 14° NNW 02:37:57 14° NNW visible
10 Apr 4.0 01:02:56 10° NNE 01:04:28 19° NNE 01:04:28 19° NNE visible
10 Apr 4.0 02:47:15 10° NNW 02:48:03 12° NW 02:48:03 12° NW visible
11 Apr 3.9 01:12:42 10° NNE 01:14:31 21° NNE 01:14:31 21° NNE visible
11 Apr 4.0 02:57:56 10° NW 02:58:05 10° NW 02:58:05 10° NW visible
12 Apr 3.7 01:22:28 10° N 01:24:30 23° N 01:24:30 23° N visible
13 Apr 3.6 01:32:14 10° N 01:34:26 24° N 01:34:26 24° N visible
